Location: Marcé
(47.5801°N, 0.3280°W)
Time: 10:54:40
(UTC+01:00)

BlueWalker 3 - Pass Details

Date: 04 December 2022
Orbit: 499 x 517 km, 53.2° (Epoch: 29 January)

Event Time Altitude Azimuth Distance (km) Brightness Sun altitude
Rises 19:34:08 0° 296° (WNW) 2,630 6.5 -23.3°
Reaches altitude 10° 19:36:24 10° 301° (WNW) 1,738 5.3 -23.7°
Enters shadow 19:39:11 38° 330° (NNW) 792 3.0 -24.1°
